FENGYUN 1C DEB

Satellite information

Favourite Embed

Satellite Type and Status

DEBRISIN ORBIT

Key statistics

Satellite FENGYUN 1C DEB at a glance.

Uptime

9610

Days in orbit

Revolutions

≈ 13.8

Per day

Orbit

SSO

Sun Synchronous Orbit

Inclination

98.6

Latest

Satellite identification and parameters

Extended collection of information and parameters for FENGYUN 1C DEB.

Object identification

Identified? True

Debris? True

Object name: FENGYUN 1C DEB

International designator: 1999-025DFK

Object number (NORAD): 33674

Object ID (CCSDS): 33674

Country: PEOPLES REPUBLIC OF CHINA (PRC)

Current information (Y/N): Y

RCS size: SMALL

Orbital parameters

Period: 104.623 minutes

Inclination: 98.6123 deg

SMA: 7354.912 km

Apoapsis: 1132.877 km

Periapsis: 820.676 km

RAAN: 296.5066 deg

Eccentricy: 0.02122395

Argument of periapsis: 177.8612 deg

Mean anomaly: 182.3498 deg

Mean motion: 13.76374359 rev/day

Mean motion (dot): 0.00001609 rev/day2

B* drag term: 0.0014286213 1/REarth

Two-line elements (TLE)

Creation date: Aug. 24, 2025, 6:52 p.m.

Reference frame: TEME

Reference center: EARTH

Epoch: Aug. 24, 2025, 3:22 a.m. UTC

TLE line 0: 0 FENGYUN 1C DEB

TLE line 1: 1 33674U 99025DFK 25236.14045984 .00001609 00000-0 14286-2 0 9990

TLE line 2: 2 33674 98.6123 296.5066 0212240 177.8612 182.3498 13.76374359868433

Live tracking on map

Real-time ground track for satellite FENGYUN 1C DEB.

In-orbit conjunctions

A list of the most updated potential collisions computed for object FENGYUN 1C DEB.

Target Orbit TCA Probability of collision Miss distance Type
METEOR 2-11 DEB LEO 2024-11-15 08:56:22 0.0001089937 241.0 (m) DEBRIS

Associated space launch

Chinese polar orbiting meteorological satellite

FENGYUN 1C DEB was lifted into orbit during the mission ‘Long March 4B | Feng Yun 1C’, on board a Long March 4B space rocket.

The launch took place on May 10, 1999, 1:33 a.m. from Launch Complex 7.

For more information about the launch, click the button.

Launch to space Long March 4B | Feng Yun 1C
Long March 4B | Feng Yun 1C

Agency: N/A

Status: Launch Successful

Launch date: May 10, 1999, 1:33 a.m. UTC

Rocket: Long March 4B

Launch pad: Launch Complex 7

Location: Taiyuan Satellite Launch Center, People's Republic of China

...

Latest news about this satellite

There are no fresh news available about this satellite. Check back as we update our databases every day.


Newsletter sign-up

Weekly statistics, charts and insights to help you stay on top of the space industry.